Location: Tel Aviv
(32.0670°N, 34.7670°E)
Time: 01:55:26
(UTC+02:00)

Vanguard 1 Rocket - Visible Passes

Search period start: 23 January 2022 00:00
Search period end: 02 February 2022 00:00
Orbit: 651 x 4224 km, 34.3° (Epoch: 22 January)

Date Brightness Start Highest point End Pass type
(mag) Time Alt. Az. Time Alt. Az. Time Alt. Az.
23 Jan 8.6 17:41:44 10° WNW 17:53:31 65° SSW 17:59:40 10° SE visible
23 Jan 9.9 20:15:36 10° WSW 20:17:10 11° SW 20:18:35 10° SW visible
24 Jan 9.5 18:59:15 10° W 19:06:50 28° SW 19:11:41 10° SSE visible
25 Jan 9.0 17:44:18 10° WNW 17:56:04 53° SSW 18:02:20 10° SE visible
26 Jan 9.8 19:02:31 10° W 19:09:02 21° SW 19:13:32 10° S visible
27 Jan 9.6 17:46:57 10° WNW 17:58:27 42° SW 18:04:47 10° SSE visible
28 Jan 10.2 19:06:27 10° W 19:11:06 15° SW 19:14:43 10° SSW visible
29 Jan 10.0 17:49:44 10° WNW 18:00:39 33° SW 18:07:01 10° SSE visible
31 Jan 12.1 05:25:17 10° SE 05:32:23 12° SE 05:40:04 10° ESE visible
31 Jan 10.2 17:52:47 10° W 18:02:41 25° SW 18:08:54 10° S visible
